Satellite: NOAA-12
Catalog number: 21263
Epoch time:      09322.72710985
Element set:    0341
Inclination:      098.7709 deg
RA of node:       330.8694 deg
Eccentricity:    0.0013253
Arg of perigee:   059.9375 deg
Mean anomaly:     300.3105 deg
Mean motion:   14.25602369 rev/day
Decay rate:        5.6e-07 rev/day^2
Epoch rev:           96241
Checksum:              299

Satellite: MET-3/5
Catalog number: 21655
Epoch time:      09322.89821046
Element set:    0785
Inclination:      082.5504 deg
RA of node:       097.2102 deg
Eccentricity:    0.0013684
Arg of perigee:   150.1608 deg
Mean anomaly:     210.0294 deg
Mean motion:   13.17021073 rev/day
Decay rate:        5.1e-07 rev/day^2
Epoch rev:           87799
Checksum:              289

Satellite: MET-2/21
Catalog number: 22782
Epoch time:      09322.78631457
Element set:    0623
Inclination:      082.5494 deg
RA of node:       059.3688 deg
Eccentricity:    0.0020906
Arg of perigee:   273.6149 deg
Mean anomaly:     086.2632 deg
Mean motion:   13.83641781 rev/day
Decay rate:        4.4e-07 rev/day^2
Epoch rev:           81898
Checksum:              336

Satellite: OKEAN-4
Catalog number: 23317
Epoch time:      09322.70853704
Element set:    0078
Inclination:      082.5409 deg
RA of node:       190.2877 deg
Eccentricity:    0.0020980
Arg of perigee:   212.5983 deg
Mean anomaly:     147.3920 deg
Mean motion:   14.82738619 rev/day
Decay rate:       1.90e-06 rev/day^2
Epoch rev:           81526
Checksum:              313

Satellite: NOAA-14
Catalog number: 23455
Epoch time:      09322.73752901
Element set:    0834
Inclination:      098.8982 deg
RA of node:       039.7782 deg
Eccentricity:    0.0010272
Arg of perigee:   111.4069 deg
Mean anomaly:     248.8187 deg
Mean motion:   14.13772116 rev/day
Decay rate:      -2.38e-06 rev/day^2
Epoch rev:           76776
Checksum:              331

Satellite: NOAA-15
Catalog number: 25338
Epoch time:      09322.83125258
Element set:    0160
Inclination:      098.5992 deg
RA of node:       308.7685 deg
Eccentricity:    0.0010189
Arg of perigee:   332.1783 deg
Mean anomaly:     027.8835 deg
Mean motion:   14.24793035 rev/day
Decay rate:        4.0e-08 rev/day^2
Epoch rev:           59879
Checksum:              334

Satellite: RESURS
Catalog number: 25394
Epoch time:      09323.63587287
Element set:     361
Inclination:      098.3229 deg
RA of node:       347.9613 deg
Eccentricity:    0.0002174
Arg of perigee:   098.6626 deg
Mean anomaly:     261.4800 deg
Mean motion:   14.24190609 rev/day
Decay rate:       -9.0e-08 rev/day^2
Epoch rev:           59052
Checksum:              312

Satellite: FENGYUN1
Catalog number: 25730
Epoch time:      09322.70371109
Element set:     903
Inclination:      098.7702 deg
RA of node:       288.3442 deg
Eccentricity:    0.0021922
Arg of perigee:   134.0904 deg
Mean anomaly:     226.2079 deg
Mean motion:   14.08071624 rev/day
Decay rate:       7.99e-06 rev/day^2
Epoch rev:           54206
Checksum:              287

Satellite: OKEAN-0
Catalog number: 25860
Epoch time:      09322.51474635
Element set:    0841
Inclination:      097.8052 deg
RA of node:       297.7262 deg
Eccentricity:    0.0001758
Arg of perigee:   062.6349 deg
Mean anomaly:     297.5035 deg
Mean motion:   14.73597896 rev/day
Decay rate:        4.4e-07 rev/day^2
Epoch rev:           55587
Checksum:              341

Satellite: NOAA-16
Catalog number: 26536
Epoch time:      09322.78129595
Element set:    0640
Inclination:      099.1774 deg
RA of node:       330.2144 deg
Eccentricity:    0.0010380
Arg of perigee:   203.9010 deg
Mean anomaly:     156.1640 deg
Mean motion:   14.12539811 rev/day
Decay rate:       2.23e-06 rev/day^2
Epoch rev:           47212
Checksum:              273

Satellite: NOAA-17
Catalog number: 27453
Epoch time:      09322.71390954
Element set:    0633
Inclination:      098.4644 deg
RA of node:       016.3016 deg
Eccentricity:    0.0012251
Arg of perigee:   037.0513 deg
Mean anomaly:     323.1505 deg
Mean motion:   14.24106862 rev/day
Decay rate:       -7.4e-07 rev/day^2
Epoch rev:           38474
Checksum:              279

Satellite: NOAA-18
Catalog number: 28654
Epoch time:      09322.74410967
Element set:    0119
Inclination:      098.9248 deg
RA of node:       264.8973 deg
Eccentricity:    0.0013591
Arg of perigee:   288.0641 deg
Mean anomaly:     071.9044 deg
Mean motion:   14.11304860 rev/day
Decay rate:       2.98e-06 rev/day^2
Epoch rev:           23175
Checksum:              326

Satellite: NOAA-19
Catalog number: 33591
Epoch time:      09322.75742882
Element set:    0325
Inclination:      098.7647 deg
RA of node:       264.6148 deg
Eccentricity:    0.0014360
Arg of perigee:   162.2403 deg
Mean anomaly:     197.9277 deg
Mean motion:   14.11003032 rev/day
Decay rate:       3.87e-06 rev/day^2
Epoch rev:           04023
Checksum:              298

/EX
SB KEPS @ AMSAT  $ORB09323.M
Orbital Elements  09323.MISC

HR AMSAT ORBITAL ELEMENTS FOR MANNED AND MISCELLANEOUS SATELLITES
FROM WA5QGD FORT WORTH,TX November 19, 2009
Send Subscribe/unsubscribe to KEPS at http://www.amsat.org/mailman/listinfo/keps
BID: ORB09323.M
TO ALL RADIO AMATEURS BT

Satellite: HUBBLE
Catalog number: 20580
Epoch time:      09321.06096865
Element set:     477
Inclination:      028.4692 deg
RA of node:       184.5336 deg
Eccentricity:    0.0003392
Arg of perigee:   108.0013 deg
Mean anomaly:     252.0927 deg
Mean motion:   15.00854380 rev/day
Decay rate:       3.44e-06 rev/day^2
Epoch rev:           87284
Checksum:              289

Satellite: ISS
Catalog number: 25544
Epoch time:      09324.07948942
Element set:      15
Inclination:      051.6442 deg
RA of node:       225.8974 deg
Eccentricity:    0.0005965
Arg of perigee:   355.7582 deg
Mean anomaly:     139.7142 deg
Mean motion:   15.76560812 rev/day
Decay rate:    1.44306e-03 rev/day^2
Epoch rev:           63051
Checksum:              313

Satellite: CO-58
Catalog number: 28895
Epoch time:      09322.69848547
Element set:    0446
Inclination:      098.0378 deg
RA of node:       208.7995 deg
Eccentricity:    0.0017191
Arg of perigee:   222.3678 deg
Mean anomaly:     137.6181 deg
Mean motion:   14.59815307 rev/day
Decay rate:        8.5e-07 rev/day^2
Epoch rev:           21627
Checksum:              362

Satellite: FALCON
Catalog number: 30776
Epoch time:      09323.84041867
Element set:     704
Inclination:      035.4341 deg
RA of node:       234.9622 deg
Eccentricity:    0.0000804
Arg of perigee:   233.1762 deg
Mean anomaly:     126.8882 deg
Mean motion:   15.03369996 rev/day
Decay rate:       4.77e-06 rev/day^2
Epoch rev:           14853
Checksum:              307

Satellite: MAST
Catalog number: 31126
Epoch time:      09323.68097520
Element set:     735
Inclination:      097.9684 deg
RA of node:       011.1985 deg
Eccentricity:    0.0094774
Arg of perigee:   156.5697 deg
Mean anomaly:     203.9882 deg
Mean motion:   14.53531632 rev/day
Decay rate:       1.67e-06 rev/day^2
Epoch rev:           13762
Checksum:              327

Satellite: CAPE1
Catalog number: 31130
Epoch time:      09322.63257857
Element set:    0746
Inclination:      097.9706 deg
RA of node:       008.0448 deg
Eccentricity:    0.0102598
Arg of perigee:   166.4222 deg
Mean anomaly:     193.9751 deg
Mean motion:   14.52105051 rev/day
Decay rate:       1.76e-06 rev/day^2
Epoch rev:           13710
Checksum:              289

Satellite: COMPASS
Catalog number: 32787
Epoch time:      09322.21320933
Element set:    0527
Inclination:      097.9252 deg
RA of node:       024.5872 deg
Eccentricity:    0.0014827
Arg of perigee:   251.4476 deg
Mean anomaly:     108.5127 deg
Mean motion:   14.81695619 rev/day
Decay rate:       6.07e-06 rev/day^2
Epoch rev:           08425
Checksum:              308

Satellite: AAUSAT2
Catalog number: 32788
Epoch time:      09322.16810202
Element set:    0517
Inclination:      097.9251 deg
RA of node:       024.6275 deg
Eccentricity:    0.0014217
Arg of perigee:   252.6097 deg
Mean anomaly:     107.3561 deg
Mean motion:   14.81824109 rev/day
Decay rate:       4.99e-06 rev/day^2
Epoch rev:           08425
Checksum:              295

Satellite: DO-64
Catalog number: 32789
Epoch time:      09323.74201655
Element set:     531
Inclination:      097.9288 deg
RA of node:       026.4558 deg
Eccentricity:    0.0014713
Arg of perigee:   245.7596 deg
Mean anomaly:     114.2081 deg
Mean motion:   14.81857722 rev/day
Decay rate:       5.22e-06 rev/day^2
Epoch rev:            8448
Checksum:              327

Satellite: CO-66
Catalog number: 32791
Epoch time:      09323.69271751
Element set:     511
Inclination:      097.9255 deg
RA of node:       026.0812 deg
Eccentricity:    0.0015088
Arg of perigee:   245.6985 deg
Mean anomaly:     114.2652 deg
Mean motion:   14.81512568 rev/day
Decay rate:       4.56e-06 rev/day^2
Epoch rev:            8443
Checksum:              319

Satellite: RS-30
Catalog number: 32953
Epoch time:      09323.53464154
Element set:     457
Inclination:      082.5004 deg
RA of node:       160.0374 deg
Eccentricity:    0.0018389
Arg of perigee:   198.7296 deg
Mean anomaly:     161.3110 deg
Mean motion:   12.43003105 rev/day
Decay rate:        1.0e-07 rev/day^2
Epoch rev:            6769
Checksum:              273

Satellite: TACSAT-3
Catalog number: 35001
Epoch time:      09322.63573306
Element set:    0162
Inclination:      040.4549 deg
RA of node:       036.6280 deg
Eccentricity:    0.0023749
Arg of perigee:   234.3699 deg
Mean anomaly:     125.4902 deg
Mean motion:   15.39578599 rev/day
Decay rate:      4.308e-05 rev/day^2
Epoch rev:           02815
Checksum:              306

